Kezdőlap
METAR-TAF:

METAR-TAF

Repülőterek :

Clinton Municipal Airport

Clinton, Iowa, Amerikai Egyesült Államok

földrajzi szélesség: 41-50N, földrajzi hosszúság: 090-20W, magasság: 216 m

Jelenlegi meteorológiai megfigyelések

A jelentés 20 perccel ezelõtt készült, 06:56 UTC
Nyugati szél 9 kt
Hőmérséklet -7°C
Páratartalom 93%
Légköri nyomás 1021 hPa
Látótávolság: 16.1 km
Derült ég

METAR: KCWI 270656Z AUTO 28009KT 10SM CLR M07/M08 A3016 RMK AO2 SLP227 T10671083 FZRANO

Idő: 01:16 (07:16 UTC)


TAF: hiányzik

Meteorológiai megfigyelések és előrejelzések több, mint 4000 repülőtéren (METAR és TAF jelentéseket).

A térképen piros és sárga pontok jelzik az elérhető meteorológiai állomásokat.

Mozgassa az egeret a pont fölött, hogy megjelenjen az állomás neve.

Azután kattintson az időjárási megfigyelések és előrejelzések megtekintéséhez.

A térkép megváltoztatása: kattintson a fekete keresztel jelölt zöld gombra ráközelítéshez, a vonallal jelölt zöld gombra távolításhoz, vagy a zöld nyilakra a szomszédos térképek eléréséhez.


METAR-TAF: